默认 日期 大小 文件数 浏览量 最新下载 xml
how up磁力链接相关资源由用户搜索指令自动获取,结果来源于网络,本站不存储任何资料,亦不承担任何责任,请于24小时内删除,搜索到614个磁力,用时6ms。
    {"Covers": {"divxfactory-htpum-back.jpg": 90640, "divxfactory-htpum-front.jpg": 86345}, "Sample": {"divxfactory-htpum-sample.avi": 7061504}, "divxfactory-htpum.nfo": 17096, "divxfactory-htpuma.avi": 732485632, "divxfactory-htpumb.avi": 733517824}
创建时间: 2022-09-15 21:44:08 大小:1.37 GB 文件数量:6 热度:2 最近下载:2025-01-10 10:09:06
    ... Discuz!.mht": 956349, "MyPickupGirls - How to pick up a cute chick - Tanata ...
创建时间: 2022-09-17 23:02:49 大小:1.94 GB 文件数量:11 热度:14 最近下载:2025-03-17 03:30:01
    ... ": 275243308, "how-to-pick-up-milfs-scene2.avi": 364618652, "how-to-pick-up-milfs ... -scene3.avi": 329790398, "how-to-pick-up-milfs ... -scene4.avi": 294331296, "how-to-pick-up-milfs ...
创建时间: 2022-09-17 23:39:53 大小:1.46 GB 文件数量:8 热度:4 最近下载:2025-05-05 02:25:02
    ... English.srt": 4642, "3 - How to Set up the Yoast SEO Plugin ... Settings.mp4": 25629269, "2 - How to Set up the Yoast SEO Plugin ... Wizard.mp4": 159287193, "3 - How to Set up the Yoast SEO Plugin ... English.srt": 9817, "2 - How to Set up the Yoast SEO Plugin ...
创建时间: 2022-09-26 18:18:09 大小:497.71 MB 文件数量:25 热度:5 最近下载:2025-03-03 14:51:02
    ... From Stand-up to Sitcom--The Comedy Writer's Ultimate How To ...
创建时间: 2022-09-26 20:41:08 大小:2.4 MB 文件数量:6 热度:4 最近下载:2025-01-25 00:33:02
    {"Covers": {"divxfactory-htpum-back.jpg": 90640, "divxfactory-htpum-front.jpg": 86345}, "Sample": {"divxfactory-htpum-sample.avi": 7061504}, "divxfactory-htpum.nfo": 17096, "divxfactory-htpuma.avi": 732485632, "divxfactory-htpumb.avi": 733517824}
创建时间: 2022-09-28 19:48:23 大小:1.37 GB 文件数量:6 热度:3 最近下载:2025-05-05 02:25:02
    ... 2_English.srt": 13496}, "How.to.Screw.It.All.Up.S01E02.SPANISH.WEBRip ... .srt": 21041}, "How.to.Screw.It.All.Up.S01E03.SPANISH.WEBRip ... .srt": 14716}, "How.to.Screw.It.All.Up.S01E04.SPANISH.WEBRip ... .srt": 14980}, "How.to.Screw.It.All.Up.S01E05.SPANISH.WEBRip ...
创建时间: 2022-10-09 23:51:35 大小:1.05 GB 文件数量:12 热度:8 最近下载:2025-01-23 12:38:02
    {"01.jpg": 345663, "02.jpg": 743612, "03.jpg": 684195, "04.jpg": 597394, "05.jpg": 599021, "06.jpg": 606280, "07.jpg": 542992, "08.jpg": 543098, "09.jpg": 566567, "10.jpg": 578039, "11.jpg": 589525, "12.jpg": 519728, "13.jpg": 530108, "14.jpg": 814770, "15 ...
创建时间: 2022-10-12 22:42:38 大小:15.11 MB 文件数量:29 热度:27 最近下载:2025-09-21 13:34:02
    {"01.jpg": 385987, "02.jpg": 822443, "03.jpg": 9607, "04.jpg": 703381, "05.jpg": 435512, "06.jpg": 558206, "07.jpg": 488308, "08.jpg": 502194, "09.jpg": 673857, "10.jpg": 654026, "11.jpg": 681278, "12.jpg": 702552, "13.jpg": 766797, "14.jpg": 785126, "15. ...
创建时间: 2022-10-13 16:57:53 大小:14.73 MB 文件数量:26 热度:6 最近下载:2025-09-19 08:10:06
    {"~Get Your Files Here !": {".B0BFJV49NL.epub": 1861521, "Bonus Resources.txt": 386}, "Get Bonus Downloads Here.url": 180}
创建时间: 2022-10-14 15:17:31 大小:1.78 MB 文件数量:3 热度:2 最近下载:2025-01-11 04:17:05
    ... - Making A Breakbreat Track Slicing Up Samples.mp4": 231305515, "3 - Making ... - Making A Breakbreat Track Slicing Up Samples English.vtt": 6310, "5 ...
创建时间: 2022-10-18 15:35:54 大小:2.75 GB 文件数量:16 热度:3 最近下载:2025-01-10 16:06:02
    {"~Get Your Files Here !": {"B0B1DYNNSL.mobi": 298084, "Bonus Resources.txt": 386}, "Get Bonus Downloads Here.url": 180}
创建时间: 2022-11-01 16:38:55 大小:291.65 KB 文件数量:3 热度:12 最近下载:2025-09-19 03:38:06
    {"Cervantes H. How To Speed Up Slow Python Code With Concurrent Progr. 2022.pdf": 83733580}
创建时间: 2022-11-09 17:35:32 大小:79.85 MB 文件数量:1 热度:2 最近下载:2025-01-07 17:48:06
    {"swe6-htpuat.mp4": 1641138549, "01377e297443242.jpg": 41903, "41533946033729075385.jpg": 243349, "57522712303474991931.jpg": 181384, "[email protected] - .txt": 0, "QQ2013@草榴社區 - powered by phpwind.net.url": 118}
创建时间: 2022-11-15 05:12:27 大小:1.53 GB 文件数量:6 热度:4 最近下载:2025-02-17 19:55:03
    {"tracked_by_h33t_com.txt": 185, "Micro Mart UK - 03 July 2014.tgz": 79056216, "Torrent Downloaded From ExtraTorrent.com.txt": 339}
创建时间: 2022-11-19 08:41:27 大小:75.39 MB 文件数量:3 热度:18 最近下载:2025-03-19 15:40:02
    {"How to Open File.html": 1937, "Learn How To Be Sexy So You Can Pick Up Women.pdf": 1781225}
创建时间: 2022-11-24 20:30:16 大小:1.7 MB 文件数量:2 热度:6 最近下载:2025-09-20 05:21:04
    {"~Get Your Files Here !": {"2 - Supplies.mp4": 36821958, "3 - Fabric Prep.mp4": 66868128, "Bonus Resources.txt": 386, "1 - Introduction.mp4": 17247561, "6 - Pressing Shut.mp4": 86197768, "9 - Stitch Practice.mp4": 149852855, "11 - Finishing Touches.mp4": ...
创建时间: 2022-11-27 08:17:36 大小:734 MB 文件数量:13 热度:3 最近下载:2025-01-02 07:19:08
    {"poster.jpg": 38362, "screens.jpg": 180730, "RARBG.com.txt": 33, "GNDBondage.2015.08.28.Shauna.Ryanne.You.Got.Me.All.TIed.Up.And.Gagged.Oh.How.Naughty.XXX.HR.MP4.hUSHhUSH.mp4": 353867065}
创建时间: 2022-11-28 06:23:41 大小:337.68 MB 文件数量:4 热度:2 最近下载:2025-01-22 10:30:07
    {"pml.17.10.20.dulcinea.how.to.pick.up.big-boobed.hotties.mp4": 1171132583}
创建时间: 2022-11-28 06:24:29 大小:1.09 GB 文件数量:1 热度:4 最近下载:2025-03-05 11:49:01
    {"bgb_brooke_wylde_vl073114_480p_2000.mp4": 569208434}
创建时间: 2022-11-28 22:12:19 大小:542.84 MB 文件数量:1 热度:9 最近下载:2025-02-03 17:07:02